Fort Worth, TX

9:47 PM CDT on October 23, 2017 (GMT -0500)
Fort Worth Meacham International

Weather History for KFTW - December, 2001

Change the Weather History Date:

Monday, December 31, 2001

  Actual Average Record
Temperature  
Mean Temperature 32 °F -  
Max Temperature 37 °F 54 °F 75 °F (2011)
Min Temperature 28 °F 34 °F 24 °F (2013)
Degree Days  
Heating Degree Days 32    
Moisture  
Dew Point 21 °F    
Average Humidity 67    
Maximum Humidity 86    
Minimum Humidity 42    
Precipitation  
Precipitation 0.00 in - - ()
Sea Level Pressure  
Sea Level Pressure 30.35 in    
Wind  
Wind Speed 11 mph (NNE)    
Max Wind Speed 14 mph    
Max Gust Speed -    
Visibility 10 miles    
Events      
Averages and records for this station are not official NWS values.
T = Trace of Precipitation, MM = Missing Value Source: NWS Daily Summary

Daily Weather History Graph

Daily Weather History Graph

Search for Another Location

Airport or City:

Trip Planner

Search our weather history database for the weather conditions in past years. The results will help you decide how hot, cold, wet, or windy it might be!

Date:

Astronomy

Dec. 31, 2001 Rise Set
Actual Time 7:31 AM CST 5:33 PM CST
Civil Twilight 7:04 AM CST 6:00 PM CST
Nautical Twilight 6:33 AM CST 6:31 PM CST
Astronomical Twilight 6:03 AM CST 7:01 PM CST
Moon 7:04 PM CST (12/31) 8:45 AM CST (12/31)
Length of Visible Light 10h 56m
Length of Day
10h 01m
Full, 98% of the Moon is Illuminated
Dec 31
Full
Jan 5
Last Quarter
Jan 13
New
Jan 21
First Quarter
Jan 28
Full

Hourly Weather History & Observations

Time (CST) Temp. Windchill Dew Point Humidity Pressure Visibility Wind Dir Wind Speed Gust Speed Precip Events Conditions
12:53 AM 28.9 °F 18.2 °F 24.1 °F 82% 30.38 in 10.0 mi North 13.8 mph - N/A   Overcast
1:53 AM 28.9 °F 18.6 °F 24.1 °F 82% 30.40 in 10.0 mi North 12.7 mph - N/A   Overcast
2:09 AM 28.4 °F 19.1 °F 24.8 °F 86% 30.38 in 10.0 mi North 10.4 mph - N/A   Overcast
2:21 AM 28.4 °F 19.7 °F 24.8 °F 86% 30.37 in 10.0 mi North 9.2 mph - N/A   Overcast
2:53 AM 28.0 °F 18.6 °F 24.1 °F 85% 30.38 in 10.0 mi North 10.4 mph - N/A   Overcast
3:08 AM 28.4 °F 18.5 °F 23.0 °F 80% 30.36 in 10.0 mi North 11.5 mph - N/A   Overcast
3:34 AM 28.4 °F 18.5 °F 23.0 °F 80% 30.36 in 10.0 mi North 11.5 mph - N/A   Overcast
3:53 AM 28.0 °F 17.5 °F 23.0 °F 81% 30.38 in 10.0 mi North 12.7 mph - N/A   Overcast
4:53 AM 28.0 °F 18.6 °F 24.1 °F 85% 30.37 in 10.0 mi North 10.4 mph - N/A   Overcast
5:53 AM 28.0 °F 19.3 °F 21.9 °F 78% 30.36 in 10.0 mi North 9.2 mph - N/A   Overcast
6:02 AM 28.4 °F 19.1 °F 21.2 °F 74% 30.34 in 10.0 mi North 10.4 mph - N/A   Overcast
6:53 AM 28.0 °F 18.1 °F 21.9 °F 78% 30.36 in 10.0 mi North 11.5 mph - N/A   Overcast
7:53 AM 28.0 °F 18.6 °F 21.9 °F 78% 30.38 in 10.0 mi North 10.4 mph - N/A   Overcast
8:53 AM 28.9 °F 19.8 °F 21.9 °F 75% 30.40 in 10.0 mi North 10.4 mph - N/A   Overcast
9:53 AM 30.0 °F 20.5 °F 21.0 °F 69% 30.41 in 10.0 mi NNE 11.5 mph - N/A   Overcast
10:53 AM 32.0 °F 24.8 °F 19.0 °F 59% 30.40 in 10.0 mi NNE 8.1 mph - N/A   Overcast
11:53 AM 34.0 °F 26.0 °F 19.0 °F 54% 30.36 in 10.0 mi NNE 10.4 mph - N/A   Overcast
12:53 PM 36.0 °F 28.5 °F 17.1 °F 46% 30.32 in 10.0 mi NE 10.4 mph - N/A   Mostly Cloudy
1:53 PM 37.0 °F 29.3 °F 16.0 °F 42% 30.30 in 10.0 mi NNE 11.5 mph - N/A   Overcast
2:53 PM 37.0 °F 30.4 °F 16.0 °F 42% 30.28 in 10.0 mi NNE 9.2 mph - N/A   Overcast
3:53 PM 37.0 °F 32.4 °F 16.0 °F 42% 30.29 in 10.0 mi NNE 5.8 mph - N/A   Overcast
4:53 PM 37.0 °F 31.0 °F 18.0 °F 46% 30.29 in 10.0 mi NNE 8.1 mph - N/A   Mostly Cloudy
5:53 PM 35.1 °F 30.1 °F 18.0 °F 50% 30.29 in 10.0 mi North 5.8 mph - N/A   Scattered Clouds
6:53 PM 34.0 °F 29.8 °F 18.0 °F 52% 30.30 in 10.0 mi North 4.6 mph - N/A   Clear
7:53 PM 34.0 °F 29.8 °F 19.0 °F 54% 30.31 in 10.0 mi NNE 4.6 mph - N/A   Scattered Clouds
8:53 PM 33.1 °F 27.7 °F 19.9 °F 59% 30.31 in 10.0 mi NNE 5.8 mph - N/A   Clear
9:53 PM 33.1 °F 26.1 °F 21.0 °F 61% 30.30 in 10.0 mi NNE 8.1 mph - N/A   Clear
10:53 PM 32.0 °F 26.4 °F 21.0 °F 64% 30.32 in 10.0 mi NNE 5.8 mph - N/A   Partly Cloudy
11:53 PM 32.0 °F 24.2 °F 19.9 °F 61% 30.32 in 10.0 mi NNE 9.2 mph - N/A   Mostly Cloudy